Location: Observatory
(52.1446°N, 0.4624°W)
Time: 05:16:25
(UTC+00:00)

ISS - Pass Details

Date: 10 December 2019
Orbit: 411 x 421 km, 51.6° (Epoch: 15 December)

Event Time Altitude Azimuth Distance (km) Brightness Sun altitude
Rises 17:21:51 0° 281° (W) 2,359 1.1 -13.1°
Reaches altitude 10° 17:24:18 10° 264° (W) 1,494 0.4 -13.5°
Maximum altitude 17:26:49 20° 215° (SW) 1,036 -1.1 -13.8°
Drops below altitude 10° 17:29:20 10° 166° (SSE) 1,492 -0.9 -14.2°
Sets 17:31:47 0° 149° (SSE) 2,354 -0.1 -14.6°
